Location: Ottobeuren
(47.9410°N, 10.3007°E)
Time: 10:29:47
(UTC+01:00)

BlueWalker 3 - Pass Details

Date: 08 December 2025
Orbit: 451 x 463 km, 53.2° (Epoch: 18 January)

Event Time Altitude Azimuth Distance (km) Brightness Sun altitude
Rises 17:24:20 0° 297° (WNW) 2,497 6.1 -9.4°
Reaches altitude 10° 17:26:30 10° 295° (WNW) 1,620 5.1 -9.7°
Maximum altitude 17:30:08 71° 211° (SSW) 495 2.0 -10.3°
Drops below altitude 10° 17:33:45 10° 128° (SE) 1,614 4.2 -10.8°
Enters shadow 17:35:38 - 126° (SE) 2,377 5.1 -11.1°
